Total_Precipitation_Accumulation
0.17 0.23 0.30 0.32 0.26 0.26 0.27 0.31 0.46 0.43 0.57 0.81 0.88 0.80 0.81 0.76 0.58 0.51 0.54 0.51 0.49 0.57 0.73 0.78 0.78 0.79 0.75 0.79 0.80 0.84 1.00 1.15 1.19 1.19 1.16 1.13 1.03 0.94 0.94 0.95 0.89 0.97 1.07 1.13
0.19 0.26 0.31 0.31 0.27 0.22 0.20 0.20 0.27 0.33 0.51 0.58 0.54 0.62 0.68 0.62 0.57 0.54 0.60 0.58 0.54 0.50 0.54 0.64 0.72 0.76 0.74 0.74 0.75 0.81 0.89 0.99 1.13 1.24 1.27 1.22 1.06 0.99 1.03 1.03 1.04 1.05 1.03 1.08
0.30 0.30 0.35 0.40 0.32 0.26 0.23 0.20 0.26 0.43 0.61 0.55 0.51 0.63 0.60 0.51 0.50 0.58 0.56 0.48 0.45 0.44 0.46 0.50 0.55 0.63 0.77 0.75 0.72 0.78 0.89 0.99 1.12 1.19 1.19 1.14 1.03 1.04 1.07 1.05 1.06 1.11 1.08 1.06
0.39 0.49 0.62 0.42 0.25 0.25 0.27 0.24 0.22 0.33 0.46 0.50 0.47 0.52 0.54 0.48 0.45 0.45 0.42 0.38 0.33 0.33 0.38 0.42 0.43 0.47 0.57 0.68 0.74 0.77 0.86 0.97 1.06 1.12 1.19 1.24 1.20 1.12 1.16 1.17 1.12 1.14 1.14 1.10
0.52 0.65 0.54 0.36 0.31 0.34 0.38 0.40 0.33 0.36 0.41 0.48 0.49 0.50 0.58 0.49 0.45 0.41 0.36 0.33 0.35 0.36 0.35 0.43 0.51 0.53 0.60 0.73 0.82 0.87 0.89 0.98 1.02 1.11 1.27 1.34 1.26 1.22 1.25 1.22 1.14 1.13 1.12 1.07
0.60 0.78 0.72 0.54 0.39 0.36 0.46 0.80 0.57 0.46 0.44 0.50 0.55 0.64 0.73 0.57 0.52 0.45 0.40 0.35 0.33 0.34 0.36 0.43 0.57 0.67 0.76 0.89 1.03 1.04 0.99 1.01 1.09 1.15 1.28 1.41 1.45 1.44 1.38 1.35 1.27 1.22 1.17 1.11
0.70 0.85 0.73 0.53 0.42 0.49 0.86 1.04 0.69 0.61 0.57 0.60 0.66 0.64 0.61 0.57 0.49 0.44 0.41 0.40 0.36 0.38 0.43 0.50 0.57 0.75 0.96 1.03 1.08 1.10 1.08 1.08 1.18 1.27 1.43 1.60 1.76 1.72 1.66 1.60 1.57 1.51 1.42 1.32
0.94 1.09 1.08 0.66 0.56 0.82 1.01 0.82 0.75 0.74 0.72 0.69 0.61 0.55 0.52 0.55 0.51 0.43 0.41 0.43 0.47 0.54 0.60 0.59 0.60 0.74 0.93 1.02 1.05 1.14 1.17 1.24 1.30 1.42 1.47 1.61 1.96 1.96 1.97 1.96 1.83 1.76 1.64 1.51
1.20 1.21 0.99 0.89 0.93 0.96 0.99 0.87 0.82 0.69 0.60 0.58 0.58 0.56 0.59 0.67 0.64 0.52 0.43 0.47 0.52 0.63 0.72 0.78 0.85 0.94 1.09 1.13 1.19 1.27 1.38 1.49 1.54 1.59 1.71 1.80 1.93 1.98 2.02 2.01 1.89 1.78 1.67 1.52
1.36 1.26 1.14 1.01 0.93 0.98 1.12 0.97 0.78 0.65 0.59 0.58 0.60 0.54 0.50 0.54 0.58 0.54 0.50 0.54 0.59 0.62 0.80 0.95 1.04 1.12 1.20 1.27 1.39 1.52 1.66 1.76 1.83 1.84 1.83 1.88 2.01 1.99 1.98 1.99 1.90 1.81 1.77 1.64
1.44 1.40 1.39 1.20 0.91 0.87 0.91 0.82 0.68 0.68 0.66 0.65 0.68 0.61 0.51 0.47 0.49 0.54 0.61 0.66 0.70 0.76 0.87 0.93 1.05 1.20 1.33 1.50 1.66 1.74 1.76 1.78 1.79 1.86 1.99 2.06 2.03 2.00 2.03 2.07 2.03 1.99 1.95 1.96
1.51 1.35 1.32 1.25 0.99 0.87 0.76 0.67 0.64 0.77 0.81 0.70 0.70 0.70 0.63 0.55 0.56 0.59 0.64 0.75 0.83 0.91 1.03 1.10 1.23 1.38 1.50 1.66 1.88 2.05 2.00 1.92 1.95 1.97 2.05 2.09 2.06 1.98 2.00 1.94 1.86 1.81 1.82 1.84
1.19 1.10 1.07 1.09 1.03 0.89 0.72 0.67 0.66 0.79 0.84 0.78 0.73 0.72 0.70 0.69 0.63 0.63 0.68 0.78 0.84 0.91 1.02 1.10 1.21 1.40 1.54 1.70 1.85 2.04 2.05 2.03 2.07 2.12 2.18 2.18 2.19 2.18 2.19 2.05 1.89 1.74 1.74 1.77
1.05 1.07 1.09 1.06 1.05 0.95 0.83 0.82 0.85 0.95 0.95 0.94 0.89 0.82 0.80 0.85 0.77 0.73 0.78 0.85 0.87 0.96 1.03 1.15 1.24 1.32 1.44 1.61 1.75 1.86 1.94 2.01 2.03 2.01 2.02 2.03 2.08 2.13 2.17 2.07 1.91 1.75 1.62 1.59
1.03 1.10 1.17 1.09 1.05 1.01 0.91 0.89 0.97 1.01 0.96 0.96 0.94 0.94 1.06 1.11 1.03 0.95 0.89 0.89 0.96 1.07 1.05 1.18 1.33 1.37 1.46 1.64 1.73 1.78 1.77 1.76 1.75 1.80 1.81 1.89 1.94 1.91 1.87 1.86 1.80 1.68 1.52 1.49
1.00 1.03 1.12 1.15 1.15 1.09 0.95 0.97 1.02 0.93 0.86 0.88 0.91 0.96 1.01 1.04 1.06 1.07 0.98 0.94 1.04 1.09 1.10 1.17 1.29 1.41 1.50 1.59 1.66 1.70 1.68 1.70 1.70 1.64 1.64 1.75 1.80 1.78 1.73 1.74 1.77 1.74 1.57 1.49
1.15 1.19 1.19 1.29 1.37 1.19 1.07 1.01 1.01 0.97 0.87 0.90 0.94 0.89 0.90 0.97 1.09 1.16 1.13 1.04 1.04 1.05 1.12 1.21 1.23 1.34 1.50 1.66 1.71 1.68 1.60 1.52 1.60 1.57 1.54 1.61 1.71 1.76 1.75 1.75 1.70 1.61 1.47 1.39
1.23 1.19 1.21 1.33 1.45 1.32 1.23 1.14 1.06 1.09 1.05 1.07 1.15 1.06 1.01 1.02 1.08 1.17 1.17 1.06 1.05 1.04 1.08 1.23 1.33 1.37 1.46 1.75 1.88 1.78 1.65 1.53 1.43 1.42 1.45 1.49 1.53 1.60 1.58 1.55 1.53 1.43 1.29 1.21
1.23 1.20 1.21 1.31 1.32 1.31 1.32 1.25 1.10 1.03 1.04 1.09 1.21 1.12 1.06 1.08 1.09 1.04 1.07 1.07 1.11 1.13 1.14 1.23 1.38 1.37 1.43 1.61 1.77 1.69 1.59 1.53 1.43 1.38 1.43 1.47 1.45 1.45 1.41 1.37 1.36 1.31 1.21 1.17
1.27 1.26 1.27 1.28 1.30 1.26 1.24 1.23 1.16 1.08 1.09 1.12 1.10 1.05 1.04 1.03 1.04 1.02 1.04 1.07 1.10 1.16 1.16 1.19 1.08 1.09 1.27 1.48 1.60 1.51 1.50 1.44 1.36 1.30 1.35 1.41 1.40 1.34 1.23 1.15 1.14 1.10 1.02 0.97
1.31 1.26 1.24 1.25 1.26 1.20 1.15 1.19 1.23 1.21 1.17 1.14 1.08 1.03 1.05 1.04 1.00 1.03 1.11 1.16 1.09 1.08 1.10 1.18 1.03 0.95 1.00 1.28 1.43 1.31 1.31 1.31 1.28 1.25 1.25 1.32 1.30 1.22 1.11 1.04 0.98 0.94 0.94 0.93
1.23 1.22 1.21 1.23 1.23 1.17 1.02 1.00 1.09 1.10 1.06 1.01 0.97 0.98 1.05 1.12 1.08 1.02 1.02 1.12 1.13 1.15 1.03 1.00 0.93 0.94 0.97 1.07 1.15 1.22 1.19 1.22 1.21 1.15 1.14 1.17 1.20 1.14 1.03 1.03 1.03 0.97 0.93 0.93
1.10 1.06 1.04 1.08 1.13 1.09 0.92 0.86 0.86 0.90 0.87 0.84 0.87 0.98 1.08 1.10 1.13 1.16 1.10 1.01 1.01 1.05 0.93 0.87 0.85 0.85 0.83 0.82 0.92 1.07 1.07 1.08 1.08 1.03 1.01 0.99 1.00 0.94 0.88 0.86 0.89 0.87 0.85 0.84
0.97 0.89 0.90 0.96 0.98 0.97 0.98 0.94 0.82 0.81 0.79 0.79 0.84 0.95 1.10 1.12 1.07 1.00 0.94 0.98 1.02 0.92 0.81 0.80 0.75 0.69 0.69 0.66 0.79 0.94 0.99 1.01 0.99 1.00 0.98 0.94 0.90 0.84 0.83 0.82 0.79 0.75 0.74 0.69
0.93 0.88 0.90 0.97 1.03 1.04 1.03 1.00 0.90 0.87 0.87 0.87 0.87 0.91 1.02 1.09 1.11 0.99 0.86 0.86 0.97 0.84 0.74 0.75 0.70 0.66 0.63 0.66 0.76 0.87 0.94 0.96 0.97 0.98 0.92 0.83 0.78 0.76 0.75 0.76 0.74 0.72 0.69 0.61
0.93 0.92 0.97 1.03 1.08 1.10 1.09 1.12 1.12 1.08 1.12 1.12 1.03 0.99 1.00 1.03 1.03 0.96 0.93 0.89 0.91 0.83 0.69 0.66 0.64 0.63 0.63 0.69 0.74 0.80 0.85 0.88 0.87 0.88 0.84 0.81 0.77 0.74 0.74 0.73 0.70 0.65 0.59 0.55
0.96 0.98 1.05 1.09 1.09 1.07 1.10 1.22 1.37 1.42 1.46 1.45 1.40 1.29 1.17 1.09 1.02 0.93 0.91 0.92 0.90 0.83 0.75 0.69 0.67 0.68 0.67 0.69 0.73 0.81 0.88 0.88 0.81 0.77 0.78 0.80 0.81 0.75 0.70 0.66 0.63 0.59 0.55 0.54